Regional Weather Roundup
Issued by NWS Memphis, TN

Home | Current Version | Previous Version | Text Only | Print | Product List | Glossary On
Versions: 1 2 3 4 5 6 7 8 9 10 11 12 13 14 15 16 17 18 19 20 21 22 23 24 25 26 27 28 29 30 31 32 33 34 35 36 37 38 39 40 41 42 43 44 45 46 47 48 49 50
000
ASUS44 KMEG 270500
RWRMEG
MEMPHIS CWA HOURLY WEATHER ROUNDUP
NATIONAL WEATHER SERVICE MEMPHIS TN
1100 PM CST SUN FEB 26 2017

...WEST TENNESSEE...

CITY           SKY/WX    TMP DP  RH WIND       PRES   REMARKS
MEMPHIS INTL   LGT RAIN  54  41  61 E6        30.07F
NWS MEMPHIS      N/A     52 N/A N/A MISG        N/A
JACKSON        CLOUDY    56  35  45 S20G30    30.13R
UNION CITY     CLOUDY    50  30  46 CALM      30.14S
PARIS          CLOUDY    48  32  53 SW13      30.17R


...EASTERN ARKANSAS...

CITY           SKY/WX    TMP DP  RH WIND       PRES   REMARKS
JONESBORO      LGT RAIN  47  44  90 N7        30.10F
WEST MEMPHIS   LGT RAIN  52  44  74 E7        30.05F
BATESVILLE     CLOUDY    45  39  81 SE5       30.07F
NEWPORT        LGT RAIN  46  44  93 E7        30.09S
WALNUT RIDGE   CLOUDY    48  37  66 E13       30.09S
BLYTHEVILLE    LGT RAIN  49  43  80 N9        30.11
SEARCY         RAIN      46  45  96 CALM      30.10R
STUTTGART      CLOUDY    48  37  66 N13       30.06R
PINE BLUFF     RAIN      50  47  89 NW9       30.04R FOG
MONTICELLO     CLOUDY    59  35  40 VRB5      29.99S


...NORTH MISSISSIPPI...

CITY           SKY/WX    TMP DP  RH WIND       PRES   REMARKS
TUPELO         MOCLDY    55  27  34 NE3       30.10R
BATESVILLE     CLOUDY    51  41  70 CALM      30.07F
TUNICA         LGT RAIN  50  39  66 N3G10     30.05F
GREENWOOD      MOCLDY    58  28  32 S6        30.05S
STARKVILLE     PTCLDY    54  30  40 S10       30.09F
GOLDEN TRIANGL PTCLDY    55  28  35 S12       30.06S


...SOUTHEAST MISSOURI...

CITY           SKY/WX    TMP DP  RH WIND       PRES   REMARKS
KENNETT        CLOUDY    48  45  87 E5        30.11F
MALDEN         CLOUDY    48  41  76 SE6       30.13F
WEST PLAINS    CLOUDY    45  24  43 E5        30.06F
POPLAR BLUFF   CLOUDY    48  37  65 SE8       30.11F
CAPE GIRARDEAU CLOUDY    45  35  68 SE6       30.14S


...NORTHWEST ALABAMA...

CITY           SKY/WX    TMP DP  RH WIND       PRES   REMARKS
MUSCLE SHOALS  CLOUDY    50  32  50 NE5       30.14R


...MIDDLE TENNESSEE...

CITY           SKY/WX    TMP DP  RH WIND       PRES   REMARKS
NASHVILLE      CLOUDY    49  27  42 CALM      30.17R
CLARKSVILLE    CLOUDY    48  23  37 CALM      30.18R
COLUMBIA       MOCLDY    46  34  61 E3        30.13R


...WESTERN KENTUCKY...

CITY           SKY/WX    TMP DP  RH WIND       PRES   REMARKS
PADUCAH        CLOUDY    51  29  42 VRB6      30.15S


...CENTRAL ARKANSAS...

CITY           SKY/WX    TMP DP  RH WIND       PRES   REMARKS
LITTLE ROCK    LGT RAIN  47  47 100 E5        30.05R


SKY/WX REPORTED AS FAIR MEANS FEW OR NO CLOUDS BELOW
12 THOUSAND FEET.




USA.gov is the U.S. government's official web portal to all federal, state and local government web resources and services.